Regional Weather Roundup
Issued by NWS Cleveland, OH

Home | Current Version | Previous Version | Text Only | Print | Product List | Glossary Off
Versions: 1 2 3 4 5 6 7 8 9 10 11 12 13 14 15 16 17 18 19 20 21 22 23 24 25 26 27 28 29 30 31 32 33 34 35 36 37 38 39 40 41 42 43 44 45 46 47 48 49 50

000
ASUS41 KCLE 182010
RWRCLE
OHIO REGIONAL WEATHER ROUNDUP
NATIONAL WEATHER SERVICE CLEVELAND, OH
400 PM EDT THU SEP 18 2014

NOTE: "FAIR" INDICATES FEW OR NO CLOUDS BELOW 12,000 FEET WITH NO
SIGNIFICANT WEATHER AND/OR OBSTRUCTIONS TO VISIBILITY.

OHZ001>008-015>018-024>027-034-035-043-044-182100-
   NORTHWEST OHIO

CITY           SKY/WX    TMP DP  RH WIND       PRES   REMARKS
DEFIANCE       MOSUNNY   72  48  42 NE6       30.11F
FINDLAY        MOSUNNY   72  48  42 NE7       30.09F
TOLEDO EXPRESS MOSUNNY   71  49  45 E3        30.11F
TOLEDO EXEC    SUNNY     69  50  50 NE9       30.13S
LIMA           SUNNY     72  48  42 NE8       30.10F
$$

OHZ009>014-019>023-028>033-038-089-182100-
   NORTHEAST OHIO

CITY           SKY/WX    TMP DP  RH WIND       PRES   REMARKS
CLE-HOPKINS    PTSUNNY   63  53  70 N12       30.14F
CLE-LAKEFRONT  MOSUNNY   64  54  69 N13       30.12F
CUY CO. ARPT   MOSUNNY   66  57  72 NE14      30.13S
LORAIN-ELYRIA  MOSUNNY   69  54  58 NE10      30.13S
ASHTABULA      MOSUNNY   63  51  65 N8        30.13S
AKRON-CANTON   PTSUNNY   67  46  47 N8        30.09F
WOOSTER        MOSUNNY   68  48  48 N12       30.11S
MANSFIELD      MOSUNNY   69  48  47 N10G18    30.11S
YOUNGSTOWN     PTSUNNY   66  50  56 N7        30.10S
$$

OHZ042-051>053-060>062-070>072-077>081-182100-
  SOUTHWEST OHIO

CITY           SKY/WX    TMP DP  RH WIND       PRES   REMARKS
CINC-COVINGTON MOSUNNY   72  47  40 E7G16     30.07S
CINC-LUNKEN    SUNNY     73  48  41 VRB3      30.07F
HAMILTON       SUNNY     72  49  44 NE5       30.08F
DAYTON         MOSUNNY   73  45  36 NE8       30.10S
WRIGHT-PAT AFB SUNNY     72  46  38 VRB7      30.08F
DAYTON GENERAL MOSUNNY   71  47  42 E9        30.08S
WILMINGTON     SUNNY     71  44  37 MISG      30.08S
$$

OHZ036-037-039>041-045>050-054>059-063>069-073>076-082>088-182100-
  CENTRAL AND SOUTHEAST OHIO

CITY           SKY/WX    TMP DP  RH WIND       PRES   REMARKS
COLUMBUS       MOSUNNY   74  45  35 E7        30.07F
OSU AIRPORT    MOSUNNY   72  46  39 NE8G16    30.08S
BOLTON FIELD   PTSUNNY   70  48  46 NE6       30.09S
RICKENBACK AFB MOSUNNY   71  46  40 NE6       30.08R
NEWARK         MOSUNNY   71  46  40 VRB6      30.08S
MARION         MOSUNNY   68  47  46 N10       30.10F
LANCASTER      SUNNY     72  46  39 E8        30.09S
ZANESVILLE     MOSUNNY   71  44  37 N8        30.08F
NEW PHILLY     PTSUNNY   72  47  40 N7        30.09F
$$


USA.gov is the U.S. government's official web portal to all federal, state and local government web resources and services.